User: anonymous   Login
Location: Caltech
(34.1382°N, 118.1253°W)
Time: 22:14:27
(UTC-07:00)
Language:

Iridium 95 - Orbit

View from above orbital plane
View from above orbital plane
View from above satellite
View from above satellite

Ground track
Ground track

The orbit data is extracted from the following two-line orbital elements,

1 27375U 02005D   15085.48494499  .00000188  00000-0  60201-4 0  9991
2 27375 086.3932 267.6099 0002014 094.5954 265.5471 14.34216445694282
Epoch (UTC): 26 March 2015 11:38:19
Eccentricity: 0.0002014
inclination: 86.3932°
perigee height: 776 km
apogee height: 779 km
right ascension of ascending node: 267.6099°
argument of perigee: 94.5954°
revolutions per day: 14.34216445
mean anomaly at epoch: 265.5471°
orbit number at epoch: 69428

The dashed part of the orbit path shows where the satellite is in the earth's shadow,  

DLR